EW8849 Weather Reports


time (UTC)temp
C
wind
direction
speed
KPH
gust
KPH
rain 1hr
cm
rain 24hr
cm
rain mn
cm
humidity
%
barometer
mb
20200531062104 9 225 0.0 0.0 0.03 0.00 2.72 99 1014.2
20200531060604 9 135 1.6 1.6 0.05 0.00 2.72 99 1014.2
20200531055104 9 203 0.0 0.0 0.05 0.00 2.72 99 1013.9
20200531053605 9 203 0.0 0.0 0.05 0.00 2.69 99 1014.2
20200531052106 9 90 0.0 0.0 0.08 0.00 2.69 99 1014.2
20200531050605 9 158 0.0 0.0 0.10 0.00 2.67 99 1014.2
20200531045104 9 225 1.6 1.6 0.08 0.00 2.64 99 1014.2
20200531043604 10 45 1.6 1.6 0.08 0.00 2.64 99 1014.2
20200531042104 10 270 0.0 0.0 0.05 0.00 2.62 99 1014.2
20200531041103 10 158 0.0 0.0 0.03 0.00 2.59 99 1014.2
20200531035604 10 225 1.6 1.6 0.00 0.00 2.57 99 1013.9
20200531034104 10 203 1.6 1.6 0.00 0.00 2.57 99 1013.5
20200531032608 10 225 4.8 4.8 0.03 0.00 2.57 99 1013.2
20200531031111 10 203 1.6 1.6 0.05 0.00 2.57 99 1012.5
20200531030106 10 135 3.2 3.2 0.08 0.00 2.57 99 1012.5
20200531025104 10 158 0.0 0.0 0.23 0.00 2.57 99 1012.2
20200531023604 10 225 3.2 3.2 0.30 0.00 2.57 99 1012.5
20200531022108 10 158 0.0 0.0 0.33 0.00 2.54 99 1011.9
20200531021104 10 90 0.0 0.0 0.33 0.00 2.49 99 1012.9
20200531015951 10 180 0.0 0.0 0.36 0.00 2.41 99 1012.9
20200531014605 10 113 3.2 3.2 0.51 0.00 2.31 99 1013.2
20200531013104 10 113 6.4 6.4 0.51 0.00 2.24 99 1013.5
20200531011607 11 203 3.2 3.2 0.56 0.00 2.13 99 1014.2
20200531010104 11 158 6.4 6.4 0.48 0.00 2.01 99 1014.2
20200531004603 11 23 3.2 3.2 0.43 0.00 1.80 99 1013.9
20200531003105 11 270 0.0 0.0 0.36 0.00 1.65 99 1013.2
20200531002104 11 158 0.0 0.0 0.43 0.00 1.60 99 1013.2
20200531000604 11 203 3.2 3.2 0.38 0.00 1.50 99 1012.9
20200530235603 11 158 0.0 0.0 0.33 0.00 1.42 99 1012.5
20200530234106 11 135 0.0 0.0 0.23 0.00 1.35 99 1011.9
20200530232604 11 248 0.0 0.0 0.03 0.00 1.14 99 1011.9
20200530231104 11 225 0.0 0.0 0.00 0.00 1.12 99 1010.8
20200530225604 11 270 0.0 0.0 0.03 0.00 1.12 99 1010.8
20200530224106 11 270 0.0 0.0 0.03 0.00 1.12 99 1010.8
20200530223104 11 23 0.0 0.0 0.05 0.00 1.12 99 1010.5
20200530221604 11 270 0.0 0.0 0.13 0.00 1.12 99 1010.5
20200530220104 11 248 0.0 0.0 0.15 0.00 1.09 99 1010.5
20200530214604 11 338 0.0 0.0 0.30 0.00 1.09 99 1010.8
20200530213604 11 23 0.0 0.0 0.28 0.00 1.07 99 1010.8
20200530212104 11 23 0.0 0.0 0.28 0.00 1.04 99 1010.5
20200530210605 11 338 0.0 0.0 0.23 0.00 0.94 99 1010.8
20200530205104 11 315 3.2 3.2 0.13 0.00 0.81 99 1010.8
20200530203604 11 270 0.0 0.0 0.10 0.00 0.76 99 1010.8
20200530202104 11 203 0.0 0.0 0.08 0.00 0.71 99 1010.5
20200530200104 11 23 0.0 0.0 0.03 0.00 0.69 99 1010.8
20200530195103 11 203 0.0 0.0 0.00 0.00 0.66 99 1011.2
20200530193604 11 158 0.0 0.0 0.00 0.00 0.66 99 1010.5
20200530192106 11 338 1.6 1.6 0.00 0.00 0.66 99 1010.2
20200530190604 11 270 0.0 0.0 0.00 0.00 0.66 99 1010.2
20200530185104 11 90 0.0 0.0 0.00 0.00 0.66 99 1009.5
20200530183605 11 270 1.6 1.6 0.03 0.00 0.66 99 1009.8
20200530182603 11 203 0.0 0.0 0.03 0.00 0.66 99 1009.8
20200530181104 11 158 3.2 3.2 0.03 0.00 0.66 99 1009.8
20200530175604 11 158 6.4 6.4 0.08 0.00 0.66 99 1009.8
20200530174604 11 270 0.0 0.0 0.10 0.00 0.66 99 1009.5
20200530173104 11 248 1.6 1.6 0.15 0.00 0.64 99 1010.2
20200530172103 11 248 0.0 0.0 0.28 0.00 0.64 99 1010.5
20200530170604 11 135 0.0 0.0 0.41 0.00 0.64 99 1010.8
20200530165104 10 293 0.0 0.0 0.41 0.00 0.58 99 1011.5
20200530164104 10 0 0.0 0.0 0.38 0.00 0.51 99 1011.5
20200530162604 11 248 0.0 0.0 0.30 0.00 0.33 99 1012.2
20200530161603 11 315 0.0 0.0 0.25 0.00 0.25 99 1012.5
20200530160104 11 158 0.0 0.0 0.20 0.00 0.20 99 1013.2
20200530154604 11 135 0.0 0.0 0.08 0.00 0.08 97 1011.9
20200530153603 11 23 0.0 0.0 0.08 0.00 0.08 95 1012.5
20200530152105 11 338 0.0 0.0 0.00 0.00 0.00 92 1012.5
20200530150604 11 248 3.2 3.2 0.00 0.00 0.00 92 1011.5
20200530145604 12 68 0.0 0.0 0.00 0.00 0.00 89 1010.8
20200530144104 12 135 0.0 0.0 0.00 0.00 0.00 80 1010.2
20200530142604 12 203 0.0 0.0 0.00 0.00 0.00 80 1009.8
20200530141104 12 90 0.0 0.0 0.00 0.00 0.00 80 1010.2
20200530135604 12 68 0.0 0.0 0.00 0.00 0.00 81 1010.2
20200530134104 12 68 0.0 0.0 0.00 0.00 0.00 82 1010.5
20200530132605 11 90 0.0 0.0 0.00 0.00 0.00 80 1010.5
20200530131106 11 113 0.0 0.0 0.00 0.00 0.00 79 1010.5
20200530125604 11 90 0.0 0.0 0.00 0.00 0.00 79 1010.5
20200530124604 11 135 0.0 0.0 0.00 0.00 0.00 78 1010.8
20200530123105 11 68 0.0 0.0 0.00 0.00 0.00 79 1010.8
20200530121604 11 180 0.0 0.0 0.00 0.00 0.00 77 1010.5
20200530120603 11 270 0.0 0.0 0.00 0.00 0.00 78 1010.5
20200530115104 11 180 1.6 1.6 0.00 0.00 0.00 78 1009.5
20200530113604 11 23 0.0 0.0 0.00 0.00 0.00 75 1010.5
20200530112104 12 158 0.0 0.0 0.00 0.00 0.00 74 1010.5
20200530110604 12 113 0.0 0.0 0.00 0.00 0.00 72 1010.5
20200530105104 12 338 0.0 0.0 0.00 0.00 0.00 71 1010.5
20200530103604 12 270 0.0 0.0 0.00 0.00 0.00 71 1010.2
20200530102104 12 113 0.0 0.0 0.00 0.00 0.00 70 1009.8
20200530101103 12 293 0.0 0.0 0.00 0.00 0.00 70 1009.8
20200530095604 12 225 0.0 0.0 0.00 0.00 0.00 70 1009.8
20200530094604 12 68 0.0 0.0 0.00 0.00 0.00 70 1010.2
20200530093104 12 45 0.0 0.0 0.00 0.00 0.00 70 1010.2
20200530092103 12 180 0.0 0.0 0.00 0.00 0.00 71 1010.2
20200530090604 12 315 0.0 0.0 0.00 0.00 0.00 73 1010.5
20200530085603 12 180 0.0 0.0 0.00 0.00 0.00 71 1010.5
20200530084104 12 45 0.0 0.0 0.00 0.00 0.00 71 1010.5
20200530083104 12 68 0.0 0.0 0.00 0.00 0.00 72 1010.8
20200530081604 12 180 0.0 0.0 0.00 0.00 0.00 70 1011.2
20200530080603 12 135 0.0 0.0 0.00 0.00 0.00 71 1011.2
20200530075104 12 135 0.0 0.0 0.00 0.00 0.00 68 1011.2
20200530073606 13 45 0.0 0.0 0.00 0.00 0.00 65 1011.2
20200530072104 13 315 0.0 0.0 0.00 0.00 0.00 64 1011.5
20200530070604 13 203 0.0 0.0 0.00 0.00 0.00 61 1011.5
20200530065103 13 225 0.0 0.0 0.00 0.00 0.00 59 1011.5
20200530063605 14 315 0.0 0.0 0.00 0.00 0.00 56 1011.5